Wind_Speed
17 17 16 15 15 17 18 18 18 17 15 15 14 13 11 11 9 8 8 8 8 8 8 10 10 11 10 9 8 9 9 8 8 7 7 6 6 10 11 11 14 16 17 17 17 17 17 16 14 13 12 11 9 7 6 5 4 2 3 3 3 4 4 3 4 5 7 8 9 8 8 8 9 9 10 10 12 14 15 17 18 18 18 18 17
19 18 17 17 17 18 19 19 19 18 17 14 14 14 12 11 9 8 9 9 8 9 9 9 10 12 11 10 9 9 8 8 8 7 7 7 6 9 11 11 12 14 17 18 17 18 17 15 15 14 13 13 11 9 7 6 4 3 2 2 2 2 2 2 3 4 7 8 7 7 7 7 8 8 9 10 12 14 16 17 18 18 17 17 17
20 17 18 17 16 18 20 19 20 20 16 13 14 14 14 13 11 10 10 10 10 10 9 8 10 12 12 12 10 10 10 8 8 8 7 7 6 8 11 11 12 13 17 19 19 18 17 16 15 15 15 14 12 10 8 7 5 3 2 2 1 0 0 1 2 4 6 6 6 6 6 7 7 8 9 11 13 14 16 18 17 17 16 16 17
22 20 20 19 19 21 21 20 20 20 16 14 14 13 14 14 13 11 10 10 10 11 10 8 10 12 13 13 12 12 11 9 9 9 8 8 7 7 8 10 11 13 16 19 20 19 19 17 16 17 16 15 13 11 9 8 6 4 4 3 2 1 1 0 1 3 4 5 5 5 6 6 6 7 9 11 13 15 17 17 16 16 16 16 17
24 23 21 20 22 24 23 22 21 21 19 17 15 14 14 15 15 13 12 11 9 10 10 9 12 13 13 14 13 12 12 10 10 9 9 9 8 8 8 8 9 11 14 19 21 20 19 18 17 18 17 15 14 12 11 9 7 6 5 4 3 2 2 1 1 2 4 4 4 4 5 5 6 7 10 12 14 16 16 16 15 16 16 17 17
23 24 24 22 22 24 25 23 20 21 22 20 17 16 15 16 17 15 14 12 9 9 9 10 13 14 14 15 14 13 12 11 10 10 9 9 10 9 8 8 8 10 12 16 21 22 19 18 18 18 18 17 16 14 13 11 9 7 6 5 4 3 3 1 1 1 3 3 3 4 4 4 5 8 10 12 14 15 15 15 15 16 17 17 18
25 24 25 25 24 24 25 23 19 19 22 22 20 19 18 18 19 16 12 10 10 10 10 11 13 14 14 15 15 14 12 12 12 11 10 10 10 10 10 9 9 9 10 12 17 21 21 20 19 18 18 18 17 16 14 13 11 8 7 7 5 4 3 2 1 1 3 3 3 3 2 3 5 8 10 12 14 14 14 15 16 17 17 18 19
27 27 25 25 27 27 26 26 23 20 21 24 22 19 20 19 19 18 13 11 11 11 12 12 12 13 14 15 16 15 13 13 14 12 11 11 11 11 11 10 10 11 11 10 12 18 21 22 22 20 20 19 18 17 16 14 12 10 9 8 6 5 4 3 2 2 3 3 3 2 1 3 6 8 10 13 14 14 14 15 16 17 18 18 19
24 28 29 27 28 27 27 29 29 26 24 27 26 20 19 20 20 21 18 13 11 12 13 13 12 13 14 15 16 16 15 15 15 13 12 13 13 12 12 10 11 12 11 11 11 13 18 22 24 23 22 20 19 18 17 15 13 11 11 9 7 6 5 4 4 4 4 4 3 2 1 3 6 9 11 13 13 13 14 15 16 17 18 18 19
21 25 30 33 32 30 29 30 31 32 31 32 31 25 21 22 20 21 20 16 12 12 13 13 12 12 13 15 15 16 16 15 15 14 14 15 13 13 13 12 12 12 11 11 12 12 14 18 23 25 24 23 21 19 18 17 13 13 13 11 9 8 5 5 6 5 5 5 4 2 1 4 7 9 12 12 12 13 14 15 16 17 17 18 19
21 23 26 31 34 34 34 33 32 33 34 34 34 31 28 26 23 21 22 19 14 12 13 12 12 12 12 14 15 16 16 16 16 16 15 15 14 14 14 14 13 13 12 11 12 13 13 13 17 21 22 24 23 20 20 18 15 16 15 13 12 8 5 7 7 7 7 6 4 2 2 4 7 10 11 12 12 13 14 15 16 16 17 18 18
19 22 24 27 29 31 32 35 35 33 32 33 34 33 32 30 29 25 23 23 18 13 13 13 12 12 12 13 14 15 16 16 17 16 15 15 16 16 15 15 14 14 14 12 12 13 15 14 13 14 15 19 23 21 22 19 16 17 17 15 13 7 6 9 9 8 8 6 4 2 2 4 7 9 10 11 12 13 14 15 15 16 17 18 18
16 18 21 24 27 27 28 31 34 35 33 33 32 32 33 32 31 29 25 26 22 15 15 15 13 13 14 14 14 14 15 17 17 16 17 17 18 17 16 15 15 15 14 14 13 14 15 15 14 13 12 15 19 20 22 20 17 18 18 16 14 9 8 10 10 9 9 7 4 2 2 5 7 9 9 10 12 13 14 15 16 17 18 18 18
15 16 17 19 22 25 27 28 29 32 34 34 32 32 34 33 31 31 29 27 24 17 17 18 16 15 15 14 14 15 16 18 18 18 19 20 19 18 17 16 15 16 15 15 15 15 16 17 17 16 14 14 15 15 17 18 18 19 18 16 15 12 10 11 11 10 10 8 5 2 2 5 7 8 9 10 11 13 14 15 16 17 18 18 18
13 14 15 15 17 19 22 24 26 28 31 33 32 29 32 34 33 32 30 29 26 20 20 22 18 15 15 14 14 15 16 19 20 21 22 21 20 18 18 17 17 16 17 17 16 16 17 18 20 19 18 17 16 14 12 14 18 20 18 17 16 14 14 13 12 11 11 8 6 3 2 5 6 7 9 10 12 13 14 16 17 18 18 18 18
10 9 10 11 13 15 14 15 19 23 27 31 32 29 28 31 32 33 32 33 32 23 22 24 21 17 16 15 15 15 15 17 20 22 23 22 22 19 18 17 18 17 17 17 16 17 18 19 21 21 22 21 19 17 15 14 18 20 20 19 17 16 16 16 14 13 12 9 6 3 1 4 6 8 10 11 12 14 15 16 17 18 18 18 18
10 8 7 7 10 13 13 12 13 16 22 27 31 31 30 31 31 32 33 37 36 27 23 25 25 22 19 16 14 15 15 14 14 16 19 21 22 21 18 18 19 18 17 17 16 18 20 21 22 23 25 26 23 20 17 16 19 21 20 19 19 18 18 18 15 13 13 10 7 4 2 4 7 9 10 12 13 14 16 17 17 18 19 20 19
11 10 8 8 9 12 14 14 13 13 16 21 26 29 30 31 32 32 34 37 38 33 27 25 26 25 23 20 15 13 12 12 12 12 14 17 19 20 20 19 20 20 17 17 17 17 19 21 22 24 27 30 28 23 19 18 21 22 21 19 19 20 20 19 17 15 14 11 8 5 3 4 7 9 10 12 14 15 16 17 18 19 20 20 20
10 11 11 11 11 11 13 14 16 16 15 16 22 26 26 27 29 33 35 36 39 38 32 27 26 27 26 24 19 15 11 11 13 12 11 14 16 19 20 21 22 21 19 18 17 16 16 18 20 23 26 28 27 24 21 22 24 24 23 20 20 22 21 20 18 16 15 12 9 7 4 4 7 9 10 12 14 15 16 16 17 18 18 19 19
9 10 11 11 10 10 11 12 15 18 17 16 18 23 27 28 28 31 34 36 39 39 36 33 29 27 27 26 23 20 16 13 13 12 12 13 14 16 20 21 22 22 20 18 17 16 16 17 17 18 20 22 23 23 22 22 24 25 25 23 23 24 22 20 19 18 16 13 10 8 5 4 6 8 10 12 13 14 15 15 16 16 17 17 17
10 9 10 10 9 9 11 11 12 15 18 21 20 20 24 28 29 29 31 35 38 39 40 40 34 29 28 29 28 25 22 19 17 15 15 16 15 15 17 19 21 22 21 19 19 18 17 17 16 15 16 18 20 21 21 20 21 24 24 23 24 24 23 22 21 19 16 14 12 10 7 5 6 8 9 11 13 14 14 15 15 16 16 15 16
12 12 11 10 10 10 10 11 11 12 16 22 24 24 25 29 30 29 30 32 36 39 41 41 39 36 33 32 31 28 25 24 22 21 19 19 19 16 15 18 20 20 21 21 20 19 18 16 16 16 15 18 19 20 20 19 19 20 22 24 24 25 24 23 21 19 17 15 14 11 8 6 6 7 9 10 12 13 14 14 15 16 16 15 15
14 14 13 13 12 11 10 11 11 12 15 19 22 25 29 30 29 30 32 33 35 38 40 41 43 44 40 35 33 30 26 26 24 23 22 22 20 17 16 17 18 18 19 22 20 19 18 16 17 17 16 18 19 19 18 17 17 19 21 23 25 26 24 23 21 19 18 17 15 13 10 8 7 7 8 10 12 13 14 14 15 15 15 14 14
13 13 14 14 14 13 12 11 11 11 13 16 20 24 28 30 28 28 31 35 37 38 39 41 44 46 43 38 37 33 29 27 25 23 23 22 21 19 18 16 16 15 16 19 20 19 19 17 17 17 18 17 17 17 18 18 20 22 21 22 25 25 24 24 23 20 19 17 15 14 11 9 8 8 8 9 11 13 13 14 14 14 14 14 13
16 16 17 16 16 16 14 13 12 11 11 13 18 23 27 30 30 29 29 32 35 36 38 41 42 42 41 41 41 39 35 33 29 25 24 23 22 21 19 17 16 14 14 16 18 19 19 18 17 17 18 17 17 19 21 22 23 22 21 22 24 24 25 25 23 21 19 17 15 14 11 10 9 8 9 9 11 12 13 13 14 14 14 13 12
22 21 20 19 18 18 18 17 15 14 14 14 15 20 25 30 32 32 31 31 32 34 36 38 39 39 41 42 42 41 41 41 35 30 28 27 26 23 20 19 17 15 15 16 17 18 19 18 18 18 19 19 21 24 23 22 22 21 21 23 24 25 26 25 23 20 18 16 15 13 11 10 9 10 10 10 12 13 13 13 14 14 14 13 12
25 26 25 23 21 20 20 20 19 19 18 16 15 17 20 25 31 35 35 33 32 33 35 37 38 39 43 45 45 42 43 45 41 36 32 29 27 25 21 20 19 17 17 17 18 19 20 19 18 19 21 24 25 26 24 22 21 21 21 23 25 27 27 25 23 20 18 16 15 13 11 10 10 11 11 11 12 13 14 14 14 15 15 13 12
26 29 29 27 25 24 23 22 22 21 20 18 16 16 16 19 24 30 37 37 35 34 35 36 37 38 41 45 48 47 45 45 44 42 37 31 29 29 25 22 22 20 19 19 20 21 21 20 19 19 22 24 24 24 26 25 22 20 21 24 26 27 28 26 23 20 18 16 15 13 11 11 12 12 12 11 12 14 14 14 15 16 15 14 13
27 29 30 30 28 26 25 25 24 23 22 20 19 18 16 17 19 22 29 35 38 37 35 35 38 40 41 42 46 49 48 45 44 44 41 36 34 34 29 26 25 23 21 21 21 21 22 22 21 20 21 24 26 27 28 27 23 23 24 26 27 28 28 26 23 21 19 17 15 14 13 13 13 13 13 12 13 15 15 15 16 16 16 15 13
28 29 29 28 27 26 26 26 26 25 24 24 22 20 18 18 18 19 21 26 34 38 37 35 35 38 41 41 43 46 48 47 46 46 44 42 39 36 33 29 27 25 23 22 22 21 22 23 22 21 22 26 31 31 29 28 25 26 29 29 29 29 27 25 23 22 20 18 17 15 15 15 14 14 14 13 13 15 16 16 16 16 16 15 14
27 26 25 24 24 24 25 26 27 26 26 25 24 23 23 21 20 20 19 20 27 35 39 37 35 35 38 40 43 44 44 45 47 47 46 47 44 39 36 33 29 28 24 22 22 21 23 24 21 22 26 30 34 33 30 28 26 29 32 31 30 28 26 25 24 23 21 20 19 17 17 16 15 15 15 14 14 15 16 16 16 16 16 15 14
23 21 21 22 22 23 24 25 25 26 26 25 25 24 25 24 22 21 20 19 23 29 35 38 37 36 37 39 42 43 43 43 45 47 48 48 47 42 38 34 31 30 27 24 23 21 22 24 23 24 29 32 36 35 32 29 27 30 33 32 30 28 27 27 26 25 24 21 20 19 18 18 16 16 16 15 14 15 15 16 16 16 16 15 14
20 20 20 19 20 22 24 25 24 24 25 25 25 25 24 24 24 25 24 23 23 25 30 35 37 37 38 40 41 41 43 45 44 45 46 48 49 46 41 35 32 32 29 27 25 21 21 23 23 26 28 31 36 36 34 31 29 30 31 31 31 30 29 29 28 26 25 23 22 21 21 20 17 17 17 15 15 15 15 15 16 16 15 14 13
18 19 20 18 18 19 22 24 25 25 25 25 25 25 26 27 27 27 26 26 26 26 28 32 36 36 37 40 42 40 40 42 44 45 46 48 50 50 46 39 34 34 31 29 27 24 23 23 24 27 26 28 36 39 36 34 32 32 32 31 32 32 30 30 29 28 27 25 24 22 22 21 19 18 17 15 15 15 15 15 16 16 15 14 13
17 18 19 19 19 19 22 25 27 28 28 28 28 28 28 29 30 30 29 28 29 29 29 31 33 35 37 39 42 43 41 42 45 46 47 49 51 51 48 42 37 35 33 31 30 27 24 22 23 28 28 27 34 39 36 35 34 33 33 33 34 33 32 31 31 30 28 27 25 23 23 22 20 19 17 16 16 16 15 16 16 16 15 14 13
20 20 20 21 20 20 23 25 26 28 29 30 31 31 30 30 31 32 32 32 31 30 31 32 31 34 38 39 41 43 43 45 45 45 46 49 52 51 48 43 38 36 35 34 32 29 27 23 22 26 29 28 33 37 37 36 35 33 33 34 36 34 34 34 33 31 30 28 25 25 25 23 21 19 18 17 16 16 16 16 16 16 15 13 13
24 23 23 23 23 24 26 26 27 29 30 31 32 32 32 32 32 33 34 36 35 33 32 33 33 33 36 40 42 42 42 46 48 46 46 47 49 50 48 44 38 35 36 36 34 31 28 26 25 26 28 30 32 36 38 37 35 34 34 35 36 36 36 37 34 32 30 28 26 26 26 24 22 20 18 17 17 17 17 16 16 16 14 14 13
25 25 24 23 25 28 30 30 31 31 32 33 34 35 36 35 34 34 33 35 38 38 35 33 34 35 35 38 42 42 41 45 49 48 46 45 45 46 48 47 40 35 34 36 37 34 30 28 28 30 30 31 32 35 38 37 35 35 36 37 37 37 37 36 34 32 30 29 28 27 26 24 22 21 19 18 17 17 17 17 17 16 15 14 13
24 24 24 24 25 28 31 32 32 32 33 34 35 36 37 36 36 36 35 34 36 38 37 35 35 36 36 36 40 43 44 45 48 48 47 45 44 44 47 49 44 38 36 36 36 35 32 30 31 32 30 30 31 32 35 36 35 35 37 38 38 38 37 36 34 33 32 30 29 27 25 24 23 21 19 19 18 18 18 18 17 16 15 14 14
21 23 24 25 26 27 30 33 33 33 33 33 34 35 36 37 36 36 36 35 35 35 36 37 36 36 37 37 37 43 48 48 47 47 48 47 44 45 47 49 47 43 41 39 35 33 32 32 32 32 31 31 32 33 35 37 37 37 37 37 38 39 39 37 35 33 32 31 29 28 26 25 23 21 20 19 19 18 19 19 17 16 15 14 14
21 23 25 25 26 28 30 31 32 32 33 34 36 37 37 38 37 36 36 36 35 34 33 36 38 37 37 37 36 40 47 50 47 45 48 48 46 47 48 50 50 46 44 42 36 32 32 33 34 35 33 34 35 36 38 38 37 38 38 38 39 39 39 37 35 34 33 31 29 29 28 25 23 21 20 20 21 19 19 20 18 15 14 14 14
22 24 25 25 26 29 30 30 31 32 34 36 38 39 39 39 37 35 34 33 33 34 33 34 38 38 38 38 37 39 46 51 49 46 48 49 48 49 51 52 52 49 46 42 38 35 32 33 37 38 35 36 37 37 37 36 35 37 39 40 41 40 39 38 37 36 34 32 31 29 28 25 22 20 18 20 23 20 18 21 19 14 13 14 14
23 24 25 26 27 28 29 30 31 32 34 37 39 39 40 41 40 37 35 32 31 32 33 34 36 38 37 37 37 38 43 51 52 50 49 49 48 49 52 53 53 51 48 43 41 40 35 32 38 40 37 37 37 36 36 35 36 38 40 41 42 42 42 40 39 37 35 34 32 28 27 25 21 18 16 17 22 21 17 19 19 16 15 15 14
24 24 25 26 27 27 27 29 29 30 33 36 38 39 39 40 41 40 39 37 34 32 32 33 35 37 36 35 36 37 40 46 52 53 51 50 48 48 50 53 53 53 51 45 42 43 40 36 38 39 37 38 38 38 37 36 38 39 40 41 43 43 42 41 39 39 37 35 31 27 26 25 20 17 17 17 21 22 20 18 18 17 16 15 14
24 26 27 28 28 28 28 29 29 29 30 32 35 38 39 39 40 40 40 41 40 37 35 35 35 36 36 35 35 37 39 42 47 52 52 50 50 49 49 52 53 53 53 49 45 44 43 43 42 40 38 39 39 38 37 36 37 39 41 43 44 43 42 40 40 40 38 33 28 24 25 25 20 17 18 20 22 23 22 18 16 16 15 15 15
26 29 31 32 33 32 29 29 29 30 31 33 34 36 37 38 39 39 41 42 42 40 39 39 38 36 36 36 35 35 38 40 42 46 49 49 50 50 49 50 52 53 54 54 50 45 43 42 42 40 38 39 40 38 37 37 38 40 41 43 44 44 43 42 42 40 35 29 25 22 21 22 21 17 15 18 20 22 21 17 15 15 15 14 15
29 32 34 35 35 33 30 28 29 30 32 34 36 37 37 37 37 38 40 43 43 41 39 40 43 40 36 36 37 36 37 39 41 43 46 47 49 49 49 49 51 52 53 55 54 49 45 42 41 39 36 37 38 37 36 38 40 41 41 42 43 42 42 41 40 36 32 27 24 21 17 17 21 15 12 16 18 18 20 17 13 14 15 14 14
28 31 34 34 32 32 30 29 29 30 30 32 35 38 38 37 37 37 39 41 41 42 40 39 43 45 41 37 37 38 38 40 42 43 45 45 45 47 49 50 50 50 51 53 54 52 49 46 42 38 35 35 34 33 34 37 39 39 39 40 41 39 38 38 36 32 30 27 24 21 16 14 19 14 11 16 17 15 19 18 13 13 15 13 13
26 28 29 29 28 29 30 30 31 32 32 32 34 37 38 37 37 37 38 39 39 41 43 41 40 44 46 42 37 38 39 39 41 44 45 44 43 45 47 48 47 47 48 50 51 51 50 46 40 36 34 32 31 32 33 34 35 36 37 40 41 38 37 37 33 30 29 26 24 22 18 15 18 14 12 15 16 13 16 17 13 13 14 13 13
27 28 27 26 27 28 29 32 34 35 36 36 36 37 38 36 37 38 38 38 38 38 43 44 40 41 46 46 40 38 38 37 39 44 46 45 45 47 48 47 46 45 45 46 47 47 45 41 37 35 33 31 31 33 33 34 33 33 35 37 38 37 38 35 30 28 28 26 25 25 20 17 17 14 13 13 13 12 13 15 14 14 14 13 14
28 27 25 25 27 29 31 33 34 34 37 38 35 36 38 36 36 38 38 38 39 38 39 40 38 38 41 43 42 41 38 36 39 43 44 44 46 50 49 47 46 47 46 45 46 45 42 38 36 34 32 33 35 35 34 33 31 30 32 34 34 35 33 30 29 28 26 26 26 24 20 18 17 16 14 11 9 10 13 14 14 13 13 14 15
Wind_Direction
219 218 207 197 191 186 187 195 198 200 204 201 201 205 202 203 202 204 208 209 215 217 220 223 226 222 217 218 213 214 209 202 211 206 203 210 221 229 218 207 209 205 204 207 206 204 206 213 215 215 220 222 221 216 209 209 197 159 115 83 61 51 43 45 35 30 36 38 45 56 64 63 62 59 51 43 36 31 27 22 18 16 17 17 17
224 227 219 204 198 198 196 199 202 206 209 205 206 208 208 211 210 209 213 216 219 226 228 220 226 226 221 221 215 215 213 209 214 206 210 209 210 243 242 223 215 210 207 207 206 205 207 216 217 215 221 223 224 221 218 217 204 171 130 111 73 51 50 58 38 32 35 42 56 65 66 65 61 53 44 35 28 25 20 16 15 14 16 16 15
226 227 224 214 210 216 213 207 207 212 211 205 211 212 210 212 213 214 217 222 223 230 233 222 225 226 222 222 217 215 213 212 217 210 214 215 212 242 252 241 227 217 211 208 206 204 207 216 218 217 222 225 226 225 225 223 210 186 164 159 135 81 87 89 47 36 38 54 68 71 70 66 57 46 35 28 22 18 15 12 12 13 14 13 11
227 226 228 229 225 222 221 218 214 214 212 210 214 217 215 214 218 222 220 220 222 227 229 224 225 224 221 221 220 217 211 212 216 214 215 216 218 228 247 253 240 228 220 212 207 204 208 216 219 218 221 226 227 226 226 223 212 195 186 191 193 216 230 163 46 40 49 67 77 73 73 64 49 37 26 22 16 12 11 9 10 11 11 9 7
226 228 227 231 232 228 225 223 219 217 218 217 216 217 220 222 226 231 230 225 223 226 226 225 225 222 220 217 219 219 213 215 216 216 216 214 219 222 230 244 247 245 234 220 211 205 208 214 218 220 221 225 227 226 225 221 214 202 197 205 207 227 231 204 12 49 68 82 85 78 73 58 37 25 18 15 10 8 8 8 9 9 8 6 4
223 228 228 228 232 233 227 221 218 219 222 221 219 218 220 227 231 231 234 232 228 232 231 229 226 221 219 214 215 217 213 216 217 218 220 215 217 222 225 226 235 246 241 230 218 208 207 212 215 219 223 225 226 226 226 222 213 203 202 209 214 226 221 206 291 73 95 104 99 86 72 48 25 14 11 8 5 6 8 9 9 8 5 3 2
226 226 228 227 230 234 230 224 218 218 224 227 225 222 221 227 231 226 226 231 228 233 231 229 226 220 218 214 211 214 213 215 216 219 223 222 220 223 225 222 225 229 231 236 230 218 211 210 213 217 221 225 227 226 226 224 214 205 204 206 214 219 210 213 236 142 128 132 118 101 71 33 14 7 3 1 3 6 9 10 8 5 3 2 2
233 229 227 226 229 233 235 233 228 221 224 229 227 228 229 232 233 227 221 225 228 231 230 229 228 223 218 214 211 212 212 215 218 220 223 224 224 227 229 225 223 222 219 225 237 234 224 216 213 217 219 221 226 226 224 224 213 203 203 202 208 212 208 217 213 161 154 158 143 126 63 18 4 359 356 359 3 7 9 9 6 3 1 1 2
237 234 231 228 227 231 235 235 233 228 227 232 232 232 235 235 236 235 231 227 225 231 235 233 233 227 218 215 213 213 213 216 220 220 221 225 225 227 231 232 229 227 224 218 223 236 238 230 220 218 219 219 224 225 225 224 211 198 200 199 202 206 208 215 205 178 172 174 162 148 38 7 357 352 354 0 5 8 9 7 3 1 0 1 2
235 236 236 233 229 228 232 233 234 234 233 236 236 234 234 235 234 237 237 231 222 229 238 237 233 224 217 217 215 215 217 217 220 222 222 226 227 227 230 234 234 232 231 224 218 222 237 242 231 224 223 222 224 224 224 223 205 193 196 196 198 204 208 208 206 195 184 180 173 167 3 359 352 350 354 0 6 8 7 4 1 0 0 2 3
236 237 239 239 236 232 232 232 233 235 236 237 238 236 235 234 234 236 239 235 222 221 237 238 228 218 214 218 217 217 221 220 220 223 223 225 228 230 230 232 234 233 229 225 222 220 225 235 233 228 227 228 229 226 225 222 204 196 199 197 197 200 206 208 210 202 188 183 183 185 348 353 351 351 354 0 7 7 4 1 360 0 1 3 4
243 241 241 243 243 240 237 235 233 232 233 234 235 237 237 236 235 235 238 239 230 221 233 236 224 214 212 215 217 220 224 225 224 224 225 227 230 231 229 229 233 233 231 226 221 222 223 224 225 225 228 237 240 235 230 223 205 201 203 201 200 197 202 212 214 204 190 186 190 202 335 348 351 351 354 1 6 5 2 0 360 1 3 4 5
251 248 245 245 245 247 245 241 238 235 234 234 234 236 238 238 237 235 235 240 238 224 226 232 219 209 209 212 217 219 222 227 228 228 230 232 231 230 228 226 229 229 229 227 223 222 223 223 224 221 221 236 246 245 239 228 207 201 204 204 203 193 196 217 217 202 192 190 197 217 326 347 351 350 355 2 4 4 0 0 2 3 3 4 4
254 252 251 250 248 249 250 248 245 241 238 237 234 232 235 234 231 233 235 237 236 221 220 226 216 208 206 208 216 220 224 228 230 231 232 234 232 228 228 227 226 227 229 227 225 224 223 223 224 221 217 223 238 247 245 231 210 202 203 205 206 191 191 218 220 203 195 193 204 228 321 348 351 350 356 3 3 2 0 2 5 4 4 4 5
253 252 251 253 251 250 251 251 250 246 241 236 230 228 234 233 228 231 235 235 233 222 219 222 218 212 206 205 212 217 224 228 229 231 229 230 231 228 228 228 226 227 230 228 225 223 225 225 222 220 218 218 222 230 236 227 211 203 203 205 205 193 190 211 220 206 198 197 207 229 322 349 350 352 358 4 4 1 1 4 5 4 4 4 6
250 255 254 254 254 252 249 252 252 250 245 239 233 230 234 236 233 234 235 236 235 225 217 221 220 214 211 212 211 212 223 226 226 233 231 227 228 228 227 228 229 229 228 227 226 224 225 225 223 221 221 221 219 218 223 223 210 202 203 205 203 195 194 207 214 206 199 201 210 225 310 348 349 355 1 5 4 2 3 5 5 3 3 4 7
248 251 259 258 255 254 251 250 250 252 249 245 240 237 236 238 242 244 241 238 236 223 213 222 222 215 217 220 212 214 228 225 221 230 231 227 228 228 229 228 228 230 228 224 224 227 229 228 226 224 225 229 225 222 226 223 209 203 204 207 204 198 200 206 209 204 200 204 213 222 279 341 348 354 1 4 3 3 4 5 3 2 2 3 5
258 254 258 257 253 254 254 252 250 250 249 246 243 239 238 241 246 250 245 239 235 226 216 220 223 220 222 225 224 228 233 223 218 226 226 227 230 230 231 232 230 229 226 222 224 229 232 232 230 228 229 233 232 234 239 223 206 202 203 208 207 203 205 206 206 205 202 206 215 221 263 327 344 351 358 2 2 4 5 4 2 1 2 1 1
271 264 262 261 259 257 255 252 250 249 246 243 241 236 232 235 240 244 243 238 234 228 218 215 221 223 224 227 232 239 239 226 222 226 226 227 230 229 231 232 231 231 225 222 224 225 226 225 227 230 233 235 235 237 235 217 204 202 202 205 206 206 210 207 205 206 203 207 218 223 252 314 335 346 355 360 1 3 4 3 2 1 359 359 359
281 273 269 269 268 265 262 255 250 248 245 241 239 234 228 228 232 236 238 238 236 233 225 217 217 222 226 226 231 236 240 240 233 231 236 236 232 229 231 231 229 229 226 222 222 222 223 220 218 224 229 231 233 229 218 207 205 206 207 209 207 209 212 208 206 206 204 209 218 225 247 297 324 341 351 357 360 1 3 3 1 360 357 356 357
291 279 272 272 272 272 268 263 256 250 245 240 238 235 229 229 232 234 235 237 238 237 232 225 220 225 229 227 228 235 240 242 240 239 242 243 241 231 224 223 222 225 223 221 219 218 222 221 212 210 216 219 218 212 202 199 206 209 211 213 210 212 213 208 207 206 206 213 219 226 243 280 311 335 349 353 357 360 2 2 0 358 355 354 356
298 286 274 269 267 270 269 266 262 255 246 241 240 239 231 228 232 236 237 239 239 237 235 233 230 229 230 228 228 232 236 239 238 239 240 241 246 240 219 213 216 220 220 218 217 216 219 220 211 201 205 208 200 197 197 199 205 210 213 213 211 215 214 208 208 206 209 217 222 227 240 268 301 328 344 350 354 358 1 2 359 355 352 352 354
303 294 284 273 264 262 265 265 264 259 251 244 242 241 235 230 232 236 237 238 240 239 237 236 234 231 229 230 232 233 235 237 236 235 237 237 240 240 228 220 219 219 219 217 214 215 216 217 212 201 200 202 193 193 200 201 205 213 215 215 214 214 212 210 211 210 214 220 225 232 242 263 293 322 337 346 352 355 0 1 358 353 348 349 351
315 304 298 288 274 264 259 258 262 264 259 250 244 242 239 234 233 236 238 238 239 242 241 238 236 234 230 230 235 236 237 239 239 236 236 236 235 234 232 227 223 219 215 212 211 212 212 213 211 201 198 200 195 196 201 203 210 216 216 214 215 213 209 212 215 215 218 223 229 237 247 265 287 312 326 339 348 352 357 358 355 349 344 345 348
326 316 310 303 292 281 271 261 255 255 261 259 248 243 241 238 234 235 239 240 239 240 242 241 239 235 232 233 234 235 237 240 238 236 235 234 232 232 231 227 223 220 208 204 209 210 208 210 209 201 200 200 199 200 202 207 212 214 215 214 213 210 209 214 219 218 221 227 234 243 254 269 286 304 318 333 342 347 352 354 352 346 341 342 344
330 324 316 307 301 293 287 278 265 256 255 261 256 246 242 240 237 236 237 239 240 239 240 240 238 235 233 235 234 232 236 239 237 235 234 232 231 230 230 228 224 221 214 206 208 207 203 203 203 201 204 206 205 202 201 207 210 209 212 211 207 206 210 217 221 221 225 231 238 249 260 275 292 304 313 327 337 342 346 349 349 343 338 339 338
326 323 318 310 302 295 291 286 278 268 255 254 259 254 247 243 239 237 236 238 239 240 240 238 237 236 232 233 235 233 235 238 238 237 234 231 231 229 227 227 223 220 222 216 211 208 202 200 199 198 204 210 210 206 203 204 206 205 207 207 203 205 213 221 223 223 228 234 242 253 264 278 294 301 306 320 331 335 339 344 345 340 336 335 334
320 318 315 310 303 295 292 287 283 276 261 251 252 254 251 248 245 240 237 238 238 239 241 238 235 237 235 234 234 233 232 235 238 238 234 231 231 230 226 224 223 222 224 222 219 215 208 205 205 202 206 209 205 204 206 204 201 203 206 206 206 209 216 222 224 226 230 235 244 253 264 278 288 293 297 310 324 329 332 339 341 338 334 330 329
314 311 308 304 300 295 293 289 284 278 268 257 251 250 251 249 248 245 241 239 238 238 240 241 237 236 236 234 232 231 230 232 236 237 235 231 230 231 228 225 224 225 226 223 221 220 213 208 209 207 207 208 203 200 203 204 201 202 206 210 213 216 219 223 224 228 231 236 244 252 264 276 282 286 291 301 315 323 327 334 337 334 330 327 325
308 304 300 296 293 292 291 289 285 278 272 265 254 245 246 249 245 246 245 241 238 237 237 239 240 238 236 234 232 232 231 231 233 235 234 231 230 231 229 226 224 223 227 229 226 221 213 209 211 214 215 211 207 204 205 206 205 205 208 212 217 221 223 225 226 229 232 236 243 253 263 270 275 281 288 296 309 318 323 330 333 329 326 323 323
303 298 292 289 288 287 287 288 286 280 274 269 258 243 239 245 245 242 245 243 240 237 235 235 239 240 239 236 233 233 234 233 234 235 235 234 233 232 230 228 223 221 223 229 231 222 209 205 208 222 228 218 210 209 210 212 211 211 213 214 217 220 223 225 227 228 231 235 241 250 258 262 268 277 284 291 303 314 319 325 328 324 321 320 321
298 293 286 284 283 282 284 284 283 280 275 270 263 251 242 244 246 244 241 240 242 240 236 234 237 239 240 238 236 236 235 234 234 235 235 235 232 229 228 228 225 223 220 223 232 226 210 204 205 219 230 222 212 212 215 216 216 217 220 219 218 219 220 222 225 227 230 233 239 248 255 258 265 276 281 287 299 309 314 321 323 319 318 318 319
292 289 285 281 278 278 280 280 278 277 275 271 267 259 250 244 243 244 243 240 239 240 239 237 237 240 241 240 238 238 236 235 235 235 235 234 232 226 225 228 228 225 220 217 225 226 213 205 200 211 224 220 213 214 217 218 219 222 225 223 219 219 220 221 223 225 229 234 238 246 253 256 263 272 277 284 295 304 311 317 318 315 314 315 316
286 285 283 278 275 275 277 277 276 275 273 271 268 263 256 248 240 238 241 243 240 238 238 239 238 239 241 241 240 237 235 235 237 237 235 234 232 229 229 230 228 226 223 217 220 223 212 201 196 206 219 217 213 214 216 219 222 225 228 223 217 218 220 222 225 226 229 233 237 244 251 254 261 268 273 282 292 301 309 313 312 311 311 312 313
280 280 281 278 274 273 273 274 275 275 272 271 269 266 262 256 247 240 238 240 242 240 238 240 240 238 238 241 241 238 235 235 238 238 235 233 232 231 230 229 225 224 223 218 219 219 210 198 197 210 218 213 211 214 215 219 223 226 228 221 214 216 220 223 226 229 231 233 236 243 249 252 258 264 271 281 290 299 306 308 308 308 308 309 310
280 279 280 280 276 273 273 273 273 272 272 272 272 269 265 261 257 249 241 236 238 240 240 239 238 237 238 238 239 241 239 238 239 237 233 233 233 231 229 228 224 223 223 219 217 218 214 200 194 209 219 215 213 215 216 217 220 224 227 220 213 214 219 222 225 228 231 232 236 243 248 251 256 262 269 279 289 298 302 304 305 304 305 308 307
282 280 279 280 278 276 275 275 273 272 271 270 269 267 265 264 261 256 248 239 236 238 240 240 236 237 239 237 236 239 240 240 239 237 234 234 232 229 228 227 221 218 220 218 214 216 217 203 192 203 215 215 213 214 217 219 217 217 220 220 218 219 220 222 224 226 229 232 235 241 246 250 255 261 269 278 287 295 298 299 301 301 304 306 305
281 279 278 277 277 279 281 279 276 274 273 271 268 266 265 264 262 260 254 244 238 236 236 238 238 237 239 239 236 236 238 239 238 236 235 233 228 226 226 224 219 214 217 218 214 213 213 204 201 209 213 214 215 214 217 220 219 218 218 217 219 222 223 224 225 225 228 232 235 240 245 250 256 262 269 278 286 292 294 296 297 299 302 304 302
279 278 278 276 276 279 282 282 277 275 273 271 269 267 265 263 261 260 256 249 242 238 235 235 238 239 238 239 237 234 235 237 236 235 235 232 228 226 227 224 219 215 216 217 214 213 209 202 206 216 217 216 219 218 218 219 219 220 221 220 220 223 225 226 226 227 230 233 236 242 246 250 256 262 270 280 286 289 290 292 294 296 301 303 300
280 280 279 279 278 278 281 282 280 275 272 269 267 265 264 262 261 259 257 253 246 241 238 235 237 240 239 239 238 234 232 234 236 235 233 232 229 227 227 226 221 216 215 216 214 211 207 200 204 213 216 217 217 215 213 213 214 216 221 225 227 228 227 226 226 229 231 234 238 243 246 250 256 262 271 281 284 285 288 289 290 296 301 300 297
283 284 283 281 278 278 280 281 279 274 270 267 266 265 263 261 260 258 256 254 248 242 238 237 236 238 239 238 237 234 230 230 235 237 234 232 230 227 227 224 220 217 217 218 215 209 202 201 205 210 211 214 216 214 213 214 217 221 223 225 226 228 229 226 226 229 231 234 238 242 246 250 254 261 272 280 280 281 285 285 288 296 299 296 296
287 287 286 283 279 279 280 279 278 275 271 268 266 265 263 261 259 255 251 250 248 242 238 236 235 236 237 237 237 236 230 228 232 238 236 234 233 231 229 225 221 220 219 219 216 210 202 202 209 212 211 213 217 221 221 221 222 224 225 224 223 225 226 225 226 229 231 233 237 241 246 250 254 263 274 278 279 282 283 283 292 302 298 294 297
292 290 287 284 282 280 278 277 276 274 271 270 268 265 262 261 258 254 247 244 244 243 239 236 234 234 235 236 236 236 233 228 229 234 238 237 235 234 231 228 225 223 220 218 216 214 208 204 212 217 218 221 225 228 226 224 223 223 224 225 224 224 225 224 226 229 231 233 235 239 247 250 252 261 270 270 275 281 277 280 295 303 297 296 299
295 292 288 285 282 280 277 275 273 271 270 271 269 265 261 259 257 255 250 244 241 241 239 236 234 234 233 233 233 234 234 230 227 230 236 237 237 237 234 230 228 225 223 220 218 218 213 209 215 221 224 228 231 230 227 225 225 225 224 224 224 225 226 225 226 230 233 234 233 236 247 252 248 251 257 256 263 272 274 279 292 295 292 294 297
296 293 290 288 286 282 279 275 272 269 268 267 267 265 262 258 256 254 252 247 242 239 236 232 232 233 232 231 232 232 234 233 228 228 232 235 236 237 236 232 229 227 226 224 223 225 221 219 224 229 231 234 236 237 236 233 231 229 225 224 225 226 225 224 227 233 234 233 233 235 244 252 249 245 252 254 258 268 276 282 287 286 287 291 292
301 300 298 296 295 290 282 277 273 269 266 265 264 264 262 259 257 254 251 248 244 240 236 230 226 229 231 231 230 231 233 233 229 227 229 232 233 234 236 234 230 229 228 226 224 227 228 229 234 237 239 241 242 242 241 237 236 236 232 229 227 225 223 224 229 233 233 232 233 232 235 245 250 247 246 250 258 268 275 281 283 281 284 287 289
305 306 305 302 299 293 285 279 276 271 269 267 265 262 260 257 256 252 250 249 245 240 237 233 226 223 226 230 230 230 232 231 228 226 227 229 231 232 233 233 229 225 224 223 223 226 229 233 238 240 242 245 245 243 240 238 238 239 238 235 231 226 224 226 227 228 228 228 229 224 218 234 250 247 229 238 254 267 273 277 280 279 282 286 288
306 306 305 301 296 291 285 280 275 272 271 269 267 264 260 256 254 251 249 248 245 238 235 235 229 223 220 226 230 230 231 231 228 227 227 227 228 230 230 229 225 220 219 222 224 226 228 231 235 237 239 242 244 244 243 242 241 240 237 232 229 227 226 224 222 222 224 223 222 217 203 220 245 237 210 232 248 257 268 276 278 276 282 287 287
304 303 301 297 291 287 284 278 275 273 273 274 273 268 262 256 252 249 246 244 242 237 234 234 234 226 220 221 227 230 230 230 227 227 227 224 224 227 228 228 225 219 219 222 222 222 225 229 232 235 235 236 240 243 242 242 244 245 238 229 225 225 223 220 217 220 225 223 221 217 203 214 241 229 201 231 247 246 260 275 283 281 284 286 285
306 303 299 293 288 285 282 279 277 275 275 280 279 270 263 256 249 245 243 240 238 236 234 235 235 231 222 218 221 226 228 228 227 228 227 223 222 225 226 227 226 220 217 218 217 217 221 224 226 228 230 234 238 239 238 237 241 244 239 232 228 224 219 217 216 216 220 222 223 221 209 214 234 222 198 223 245 239 246 267 282 286 286 285 284
308 304 299 292 289 288 286 282 279 276 278 284 281 267 259 253 246 242 239 236 235 234 233 233 232 231 226 220 220 223 224 225 228 228 226 222 223 226 227 228 228 225 222 221 220 220 221 221 221 223 228 231 232 233 234 235 236 236 233 231 229 224 218 216 217 213 212 219 224 219 208 213 225 218 202 209 227 228 239 261 277 282 284 286 288
Height
1555 1555 1556 1556 1558 1559 1561 1562 1563 1564 1565 1566 1567 1567 1568 1569 1570 1571 1572 1573 1574 1575 1576 1577 1577 1578 1578 1578 1579 1579 1579 1580 1581 1581 1582 1582 1582 1580 1579 1580 1580 1580 1581 1581 1581 1582 1583 1583 1584 1585 1585 1585 1585 1585 1586 1586 1587 1587 1587 1587 1586 1587 1587 1586 1586 1586 1585 1585 1585 1584 1584 1584 1583 1583 1583 1582 1582 1581 1580 1579 1578 1577 1575 1574 1572
1554 1554 1555 1556 1557 1558 1559 1561 1562 1563 1563 1564 1565 1566 1567 1568 1569 1570 1572 1572 1573 1574 1574 1575 1576 1577 1577 1578 1578 1579 1579 1580 1580 1581 1582 1582 1582 1581 1579 1579 1579 1579 1580 1580 1580 1581 1582 1583 1583 1584 1584 1585 1585 1585 1586 1586 1587 1587 1587 1586 1586 1587 1587 1586 1586 1586 1585 1585 1585 1585 1584 1584 1584 1583 1583 1583 1582 1581 1580 1579 1578 1577 1575 1574 1572
1553 1553 1554 1555 1556 1557 1558 1559 1561 1561 1562 1563 1564 1565 1566 1567 1568 1569 1571 1572 1573 1573 1573 1574 1575 1576 1577 1577 1577 1577 1578 1579 1580 1581 1581 1581 1582 1581 1579 1578 1578 1578 1579 1579 1579 1580 1581 1582 1582 1583 1584 1584 1584 1585 1585 1586 1586 1587 1586 1586 1587 1587 1587 1586 1586 1586 1586 1585 1585 1585 1585 1585 1584 1584 1583 1583 1582 1582 1581 1579 1578 1577 1575 1574 1573
1551 1552 1553 1554 1555 1556 1557 1558 1559 1560 1561 1562 1563 1564 1565 1566 1567 1568 1569 1570 1571 1572 1572 1573 1574 1575 1576 1576 1576 1576 1577 1578 1579 1580 1580 1581 1582 1581 1580 1578 1577 1577 1578 1578 1578 1579 1580 1581 1581 1582 1583 1583 1584 1584 1585 1585 1586 1586 1586 1586 1586 1586 1586 1586 1586 1586 1586 1585 1585 1585 1585 1585 1585 1584 1584 1583 1582 1582 1581 1579 1578 1577 1575 1574 1573
1549 1551 1553 1553 1553 1554 1556 1556 1558 1559 1559 1560 1561 1562 1563 1564 1565 1566 1567 1568 1569 1570 1570 1572 1573 1573 1574 1575 1575 1575 1576 1577 1578 1579 1579 1580 1581 1581 1581 1579 1578 1577 1576 1577 1577 1578 1579 1580 1580 1581 1582 1582 1582 1583 1583 1584 1585 1585 1586 1586 1586 1586 1586 1586 1586 1586 1586 1586 1586 1585 1585 1585 1585 1585 1584 1583 1583 1582 1581 1579 1578 1577 1575 1574 1573
1548 1549 1550 1551 1551 1553 1554 1555 1556 1557 1558 1559 1560 1561 1562 1562 1563 1565 1565 1566 1568 1568 1569 1570 1571 1571 1572 1573 1574 1574 1575 1576 1577 1577 1578 1579 1580 1580 1580 1580 1580 1578 1577 1576 1576 1577 1577 1578 1579 1580 1580 1581 1581 1582 1582 1583 1584 1585 1585 1585 1585 1586 1586 1586 1586 1586 1586 1586 1585 1586 1586 1585 1585 1585 1584 1584 1583 1582 1581 1579 1578 1577 1575 1574 1572
1546 1547 1548 1549 1550 1551 1553 1554 1555 1556 1557 1557 1559 1560 1560 1561 1562 1564 1565 1566 1567 1568 1568 1568 1568 1569 1570 1571 1573 1574 1574 1575 1576 1576 1577 1577 1578 1578 1578 1578 1579 1579 1578 1577 1576 1576 1576 1577 1578 1578 1579 1580 1580 1580 1581 1582 1583 1584 1584 1584 1585 1585 1585 1585 1585 1585 1585 1585 1585 1585 1586 1585 1585 1585 1584 1584 1583 1582 1581 1579 1578 1577 1575 1574 1572
1543 1544 1545 1547 1549 1550 1552 1552 1554 1555 1556 1556 1558 1559 1559 1560 1561 1562 1563 1565 1566 1567 1566 1566 1566 1567 1568 1569 1571 1572 1573 1574 1575 1575 1576 1576 1576 1576 1576 1576 1577 1577 1578 1578 1577 1576 1575 1576 1576 1577 1578 1578 1579 1579 1580 1581 1582 1583 1583 1584 1584 1584 1585 1585 1585 1585 1585 1585 1585 1585 1585 1585 1585 1585 1584 1583 1583 1581 1580 1579 1578 1576 1575 1573 1572
1541 1542 1543 1544 1546 1549 1550 1550 1552 1553 1554 1555 1556 1558 1558 1559 1560 1560 1562 1563 1565 1566 1566 1565 1565 1565 1566 1567 1569 1570 1571 1572 1573 1573 1574 1575 1575 1575 1574 1574 1574 1574 1574 1576 1577 1577 1575 1575 1575 1576 1576 1577 1577 1578 1579 1580 1581 1582 1582 1583 1583 1584 1584 1584 1585 1585 1585 1585 1585 1585 1585 1585 1585 1584 1584 1583 1582 1581 1580 1579 1578 1576 1575 1573 1572
1540 1541 1542 1543 1544 1545 1546 1548 1549 1550 1551 1552 1554 1556 1557 1557 1559 1560 1560 1561 1563 1565 1565 1564 1564 1564 1565 1566 1567 1568 1569 1570 1571 1572 1573 1573 1573 1573 1573 1573 1572 1572 1573 1573 1575 1576 1576 1574 1574 1574 1575 1575 1576 1577 1577 1578 1580 1580 1581 1582 1583 1583 1584 1584 1584 1584 1584 1585 1585 1585 1585 1585 1584 1584 1583 1583 1582 1581 1580 1579 1577 1576 1574 1573 1572
1538 1539 1540 1541 1541 1542 1544 1545 1546 1547 1549 1550 1552 1554 1555 1556 1557 1558 1559 1560 1561 1563 1565 1564 1563 1563 1564 1564 1565 1567 1568 1569 1569 1570 1571 1571 1572 1571 1571 1571 1571 1571 1571 1571 1573 1575 1575 1574 1573 1574 1574 1574 1575 1576 1576 1577 1578 1579 1580 1581 1581 1582 1583 1583 1583 1584 1584 1584 1585 1585 1585 1584 1584 1583 1583 1582 1581 1580 1579 1578 1577 1576 1575 1574 1572
1537 1538 1539 1539 1540 1541 1542 1543 1544 1545 1547 1548 1550 1551 1552 1553 1555 1557 1557 1558 1559 1561 1563 1563 1562 1562 1563 1564 1564 1565 1566 1567 1567 1568 1568 1569 1569 1569 1569 1569 1569 1569 1569 1570 1571 1573 1574 1574 1573 1574 1574 1574 1573 1574 1575 1575 1577 1577 1578 1579 1580 1581 1582 1583 1583 1583 1583 1584 1584 1585 1584 1584 1583 1583 1582 1582 1581 1580 1579 1578 1577 1576 1575 1574 1572
1535 1536 1536 1537 1537 1538 1539 1541 1542 1544 1545 1546 1547 1548 1549 1551 1553 1555 1555 1555 1557 1560 1562 1563 1562 1561 1561 1562 1563 1564 1565 1565 1565 1566 1567 1567 1567 1566 1567 1567 1567 1567 1567 1568 1569 1570 1571 1572 1572 1573 1574 1573 1572 1572 1573 1574 1575 1576 1577 1578 1579 1580 1581 1582 1582 1582 1583 1583 1584 1584 1584 1583 1583 1582 1582 1581 1580 1580 1579 1578 1577 1575 1574 1573 1572
1532 1533 1534 1534 1535 1535 1536 1538 1539 1541 1542 1543 1544 1545 1546 1547 1549 1551 1552 1553 1554 1557 1560 1561 1560 1559 1559 1561 1562 1562 1563 1563 1564 1564 1565 1564 1564 1564 1564 1565 1565 1566 1566 1566 1567 1568 1569 1569 1570 1571 1572 1573 1573 1572 1572 1573 1574 1575 1576 1577 1577 1579 1580 1580 1581 1581 1582 1583 1584 1584 1583 1583 1582 1582 1581 1580 1580 1579 1578 1577 1576 1575 1574 1573 1572
1530 1531 1531 1531 1532 1533 1533 1534 1535 1537 1539 1540 1541 1542 1542 1543 1545 1547 1549 1550 1551 1554 1556 1558 1558 1558 1558 1558 1559 1560 1560 1560 1560 1560 1561 1562 1562 1562 1562 1563 1563 1564 1564 1564 1564 1565 1566 1567 1567 1568 1569 1571 1572 1573 1572 1572 1572 1573 1575 1576 1576 1577 1578 1579 1580 1580 1581 1582 1583 1583 1583 1582 1582 1581 1580 1580 1579 1578 1577 1576 1575 1574 1573 1572 1571
1528 1529 1529 1530 1530 1530 1531 1532 1532 1533 1535 1536 1538 1539 1540 1541 1542 1543 1545 1546 1547 1550 1552 1554 1555 1557 1557 1556 1557 1558 1557 1557 1557 1557 1557 1558 1559 1559 1560 1561 1562 1562 1561 1562 1562 1563 1563 1563 1564 1565 1566 1567 1569 1570 1571 1570 1571 1572 1573 1574 1575 1576 1577 1577 1578 1579 1581 1582 1582 1583 1582 1582 1581 1580 1580 1579 1578 1577 1576 1575 1574 1573 1572 1571 1570
1526 1526 1527 1528 1528 1528 1529 1530 1530 1531 1531 1532 1534 1535 1537 1538 1539 1540 1541 1542 1544 1547 1549 1549 1551 1553 1554 1555 1555 1554 1554 1554 1555 1555 1555 1556 1556 1557 1558 1559 1560 1560 1559 1560 1560 1560 1559 1560 1561 1562 1563 1564 1565 1566 1567 1569 1569 1571 1572 1573 1574 1574 1575 1576 1577 1578 1580 1581 1582 1582 1582 1581 1580 1579 1579 1578 1577 1577 1576 1575 1573 1572 1571 1570 1569
1523 1524 1524 1525 1526 1526 1526 1527 1528 1528 1528 1529 1530 1531 1533 1535 1536 1537 1537 1538 1541 1543 1545 1546 1547 1549 1550 1552 1552 1551 1551 1552 1553 1553 1554 1554 1555 1555 1556 1557 1558 1557 1557 1558 1558 1557 1556 1557 1558 1559 1560 1561 1562 1563 1565 1567 1568 1569 1570 1571 1572 1573 1573 1574 1576 1577 1579 1580 1581 1581 1581 1580 1580 1579 1578 1578 1577 1576 1575 1574 1573 1571 1570 1568 1568
1521 1521 1522 1522 1523 1523 1524 1524 1525 1525 1525 1526 1527 1528 1530 1531 1533 1533 1533 1535 1537 1538 1541 1543 1545 1547 1547 1549 1550 1550 1550 1550 1550 1551 1551 1552 1553 1554 1554 1555 1556 1555 1555 1555 1555 1555 1554 1555 1556 1556 1557 1558 1559 1561 1563 1565 1566 1567 1568 1569 1570 1571 1572 1573 1575 1576 1577 1579 1579 1580 1580 1579 1579 1579 1578 1577 1576 1575 1574 1573 1572 1571 1569 1568 1567
1519 1519 1520 1520 1520 1521 1521 1522 1522 1522 1523 1523 1524 1525 1527 1528 1529 1530 1530 1531 1532 1534 1538 1540 1541 1543 1545 1546 1547 1548 1548 1548 1549 1549 1549 1549 1550 1551 1552 1553 1553 1553 1553 1553 1553 1553 1553 1553 1554 1555 1555 1556 1557 1559 1562 1563 1564 1565 1566 1567 1568 1569 1570 1572 1573 1574 1576 1577 1578 1578 1578 1578 1578 1578 1577 1576 1575 1575 1574 1573 1572 1571 1570 1569 1568
1518 1517 1517 1518 1518 1518 1518 1519 1519 1520 1520 1520 1521 1522 1524 1526 1527 1527 1528 1528 1528 1530 1533 1535 1537 1540 1542 1543 1544 1545 1546 1547 1547 1547 1547 1547 1546 1547 1549 1550 1550 1549 1550 1550 1551 1552 1551 1551 1552 1554 1554 1554 1555 1558 1560 1562 1563 1564 1564 1565 1566 1567 1569 1570 1571 1573 1574 1575 1576 1576 1577 1577 1577 1577 1576 1576 1575 1575 1574 1573 1572 1571 1570 1569 1568
1516 1516 1515 1515 1515 1516 1516 1516 1517 1517 1517 1518 1519 1519 1520 1522 1524 1525 1525 1526 1526 1527 1529 1531 1534 1537 1538 1540 1540 1542 1543 1544 1544 1545 1546 1545 1544 1544 1545 1546 1546 1546 1546 1547 1548 1549 1549 1549 1550 1552 1553 1553 1554 1556 1558 1560 1561 1562 1562 1563 1565 1566 1567 1568 1570 1571 1573 1573 1574 1574 1575 1576 1576 1576 1575 1575 1574 1574 1573 1572 1571 1570 1569 1568 1567
1515 1514 1514 1513 1513 1513 1513 1514 1514 1515 1515 1515 1516 1516 1517 1519 1521 1522 1522 1523 1524 1524 1525 1527 1530 1532 1534 1536 1537 1538 1540 1540 1541 1542 1543 1543 1543 1543 1543 1543 1544 1543 1543 1544 1546 1547 1548 1548 1548 1550 1551 1551 1552 1554 1556 1558 1559 1560 1560 1562 1564 1565 1566 1567 1569 1570 1571 1572 1572 1573 1573 1574 1575 1574 1574 1574 1573 1573 1572 1571 1571 1570 1569 1568 1567
1513 1513 1512 1512 1511 1511 1511 1511 1512 1512 1513 1513 1513 1514 1514 1516 1517 1518 1519 1520 1520 1521 1521 1522 1524 1527 1529 1532 1534 1535 1536 1538 1539 1541 1541 1541 1541 1541 1541 1541 1542 1542 1541 1542 1543 1545 1546 1547 1547 1548 1550 1550 1550 1552 1554 1555 1556 1557 1559 1561 1562 1563 1565 1567 1568 1569 1570 1570 1571 1571 1572 1572 1573 1573 1573 1573 1572 1572 1571 1570 1570 1569 1568 1567 1566
1512 1511 1510 1510 1509 1509 1508 1508 1509 1509 1510 1510 1510 1511 1511 1512 1513 1515 1515 1516 1516 1517 1517 1518 1520 1522 1525 1528 1530 1531 1533 1535 1536 1538 1538 1538 1539 1539 1538 1538 1539 1540 1540 1540 1542 1543 1544 1545 1546 1547 1548 1548 1549 1550 1551 1552 1553 1555 1557 1559 1560 1562 1564 1566 1567 1568 1568 1569 1569 1569 1570 1571 1571 1571 1571 1571 1571 1570 1570 1569 1569 1568 1567 1566 1566
1510 1509 1509 1508 1508 1507 1507 1506 1506 1506 1506 1506 1506 1507 1507 1508 1509 1511 1512 1512 1513 1513 1514 1515 1516 1518 1521 1523 1525 1527 1529 1531 1533 1534 1534 1535 1535 1536 1536 1536 1536 1538 1538 1538 1540 1541 1542 1543 1545 1546 1546 1546 1546 1547 1549 1550 1551 1553 1555 1556 1558 1560 1562 1564 1565 1566 1567 1568 1568 1568 1569 1569 1569 1570 1570 1569 1569 1569 1568 1568 1567 1567 1566 1565 1565
1507 1507 1506 1505 1505 1505 1504 1504 1503 1503 1503 1503 1503 1503 1504 1504 1505 1506 1507 1508 1509 1510 1510 1511 1512 1514 1516 1518 1521 1523 1524 1526 1528 1529 1530 1531 1532 1533 1534 1533 1534 1535 1536 1536 1538 1539 1539 1540 1541 1543 1543 1542 1544 1546 1547 1548 1549 1551 1553 1554 1556 1558 1561 1562 1564 1565 1566 1566 1567 1567 1567 1567 1568 1568 1568 1568 1567 1567 1567 1567 1566 1565 1565 1564 1564
1504 1504 1503 1502 1502 1501 1501 1501 1500 1500 1499 1499 1500 1500 1500 1500 1501 1502 1503 1504 1505 1506 1507 1507 1508 1509 1511 1514 1516 1517 1519 1521 1523 1524 1526 1527 1528 1529 1530 1531 1530 1531 1533 1534 1534 1535 1537 1538 1538 1540 1540 1540 1542 1544 1545 1546 1548 1550 1551 1553 1554 1556 1558 1560 1562 1563 1564 1565 1565 1566 1566 1566 1567 1567 1567 1566 1566 1566 1565 1565 1564 1564 1563 1563 1562
1502 1501 1499 1498 1498 1497 1497 1497 1497 1497 1496 1496 1496 1496 1497 1497 1497 1498 1499 1500 1501 1502 1503 1503 1504 1506 1507 1508 1510 1512 1515 1517 1518 1520 1522 1523 1524 1525 1526 1527 1528 1528 1528 1530 1531 1532 1534 1534 1535 1537 1538 1538 1539 1541 1542 1544 1546 1548 1549 1551 1552 1554 1556 1558 1560 1561 1562 1563 1564 1564 1565 1565 1565 1565 1565 1565 1564 1564 1564 1563 1563 1562 1561 1561 1561
1499 1497 1496 1494 1494 1493 1492 1492 1492 1493 1492 1492 1492 1492 1493 1493 1493 1494 1495 1496 1497 1497 1498 1499 1500 1502 1502 1504 1505 1507 1510 1512 1513 1515 1517 1519 1519 1521 1522 1524 1525 1525 1525 1526 1527 1529 1531 1531 1532 1534 1534 1534 1536 1538 1540 1542 1545 1546 1546 1548 1549 1552 1554 1556 1558 1559 1560 1561 1562 1562 1563 1564 1564 1564 1563 1563 1563 1563 1562 1561 1561 1560 1560 1559 1559
1495 1494 1492 1491 1490 1489 1488 1488 1488 1488 1488 1488 1488 1488 1488 1489 1489 1490 1491 1492 1493 1493 1494 1495 1496 1497 1498 1499 1500 1501 1504 1506 1507 1509 1512 1514 1515 1517 1518 1520 1521 1521 1523 1524 1523 1525 1527 1528 1530 1531 1530 1531 1533 1536 1538 1541 1543 1543 1543 1545 1547 1549 1552 1554 1555 1557 1558 1559 1560 1561 1561 1562 1562 1562 1562 1561 1561 1561 1560 1560 1559 1559 1558 1558 1557
1491 1490 1489 1487 1486 1485 1485 1484 1483 1483 1483 1483 1484 1484 1484 1484 1485 1486 1486 1488 1489 1489 1490 1491 1492 1493 1493 1494 1494 1496 1498 1500 1501 1503 1506 1509 1511 1513 1514 1516 1518 1518 1520 1521 1521 1522 1523 1525 1528 1527 1526 1529 1531 1533 1536 1538 1540 1540 1541 1543 1546 1548 1549 1551 1553 1554 1556 1557 1558 1559 1559 1560 1560 1560 1560 1560 1559 1559 1559 1558 1558 1557 1557 1556 1555
1486 1486 1485 1484 1482 1481 1480 1480 1479 1479 1478 1478 1479 1479 1479 1479 1480 1481 1482 1483 1484 1485 1486 1487 1487 1488 1488 1489 1490 1492 1493 1494 1495 1498 1501 1504 1506 1509 1510 1512 1514 1515 1516 1517 1519 1520 1520 1522 1524 1523 1523 1526 1529 1531 1533 1535 1537 1538 1539 1542 1544 1545 1546 1548 1550 1552 1553 1554 1555 1556 1557 1558 1558 1558 1558 1558 1558 1557 1557 1557 1556 1556 1555 1554 1554
1482 1481 1480 1479 1479 1477 1476 1476 1475 1474 1474 1474 1474 1474 1474 1474 1475 1476 1477 1478 1479 1480 1481 1482 1483 1484 1484 1484 1485 1487 1489 1489 1491 1493 1495 1498 1501 1503 1505 1508 1510 1511 1513 1514 1516 1518 1517 1518 1520 1519 1520 1523 1525 1527 1530 1533 1535 1535 1537 1540 1541 1542 1544 1546 1548 1549 1550 1552 1553 1554 1555 1555 1556 1556 1556 1556 1556 1555 1555 1555 1554 1554 1553 1553 1552
1478 1477 1476 1475 1474 1473 1472 1471 1470 1470 1469 1469 1468 1469 1469 1469 1470 1470 1471 1473 1474 1474 1476 1476 1478 1479 1480 1480 1480 1482 1484 1485 1486 1488 1490 1492 1495 1498 1500 1503 1505 1508 1510 1511 1513 1514 1514 1514 1515 1515 1517 1520 1521 1524 1528 1530 1532 1533 1535 1537 1538 1540 1542 1544 1545 1546 1548 1549 1550 1551 1552 1553 1553 1553 1553 1553 1553 1553 1553 1553 1552 1552 1551 1551 1550
1474 1473 1472 1471 1470 1469 1468 1466 1465 1465 1464 1463 1463 1463 1463 1464 1464 1465 1466 1467 1468 1469 1470 1471 1473 1474 1475 1475 1475 1477 1479 1480 1481 1483 1484 1485 1488 1492 1495 1498 1500 1503 1506 1508 1510 1511 1510 1511 1512 1512 1514 1516 1518 1521 1524 1526 1528 1531 1533 1534 1535 1537 1539 1540 1542 1544 1545 1546 1548 1549 1550 1550 1550 1551 1551 1551 1551 1551 1551 1550 1550 1549 1549 1548 1548
1470 1469 1468 1466 1465 1464 1463 1462 1461 1459 1459 1458 1458 1457 1457 1458 1458 1459 1460 1461 1461 1463 1464 1465 1466 1468 1469 1470 1471 1472 1474 1474 1475 1477 1479 1480 1483 1487 1490 1492 1495 1498 1501 1504 1506 1507 1507 1507 1509 1509 1510 1513 1515 1518 1520 1523 1525 1528 1530 1531 1533 1534 1535 1537 1539 1541 1542 1544 1545 1546 1547 1547 1548 1548 1549 1549 1549 1549 1548 1548 1548 1547 1546 1546 1546
1466 1465 1463 1462 1461 1459 1457 1456 1455 1454 1453 1452 1452 1451 1451 1452 1452 1452 1453 1455 1456 1457 1458 1459 1460 1462 1463 1464 1465 1467 1469 1468 1468 1471 1474 1476 1478 1480 1483 1486 1490 1493 1496 1498 1501 1503 1503 1504 1505 1505 1507 1509 1512 1514 1518 1520 1522 1524 1526 1528 1530 1532 1533 1535 1537 1539 1540 1541 1543 1543 1544 1545 1545 1546 1546 1547 1547 1546 1546 1546 1545 1545 1544 1544 1543
1461 1460 1458 1457 1455 1453 1452 1450 1449 1448 1447 1446 1445 1445 1445 1445 1446 1446 1447 1448 1450 1451 1452 1453 1454 1455 1456 1458 1459 1461 1462 1462 1463 1465 1468 1471 1472 1474 1476 1480 1485 1488 1491 1493 1496 1498 1499 1500 1501 1501 1503 1506 1509 1512 1515 1517 1520 1521 1523 1525 1527 1529 1531 1532 1534 1536 1537 1539 1540 1541 1542 1543 1543 1544 1544 1544 1544 1544 1544 1543 1543 1542 1542 1541 1541
1457 1455 1453 1451 1450 1448 1446 1445 1443 1442 1441 1440 1439 1439 1439 1439 1440 1440 1441 1442 1443 1445 1446 1447 1448 1449 1450 1451 1453 1454 1455 1457 1458 1460 1463 1465 1468 1470 1471 1475 1480 1483 1485 1488 1491 1493 1495 1495 1496 1498 1500 1502 1505 1509 1511 1512 1514 1517 1519 1522 1524 1526 1527 1530 1532 1534 1535 1537 1538 1539 1540 1540 1541 1542 1542 1542 1542 1542 1541 1541 1540 1540 1540 1539 1539
1452 1450 1448 1446 1444 1442 1441 1439 1437 1436 1435 1433 1433 1433 1433 1434 1434 1435 1435 1436 1437 1438 1440 1442 1443 1443 1444 1445 1447 1448 1449 1451 1453 1455 1457 1461 1464 1466 1467 1470 1475 1478 1480 1483 1485 1488 1490 1491 1492 1494 1496 1498 1501 1503 1505 1507 1510 1513 1516 1519 1521 1523 1525 1527 1529 1531 1532 1534 1535 1536 1537 1538 1539 1539 1540 1539 1539 1539 1539 1537 1538 1538 1538 1537 1537
1448 1445 1443 1441 1439 1437 1435 1433 1431 1430 1428 1426 1426 1427 1427 1428 1429 1430 1430 1431 1432 1433 1434 1436 1437 1438 1439 1440 1441 1442 1444 1446 1449 1450 1452 1455 1459 1461 1463 1465 1469 1472 1475 1477 1480 1482 1485 1486 1487 1489 1491 1494 1496 1499 1502 1505 1508 1510 1512 1514 1516 1519 1521 1524 1526 1528 1530 1531 1532 1533 1534 1536 1537 1537 1537 1536 1535 1536 1536 1534 1534 1536 1535 1535 1535
1443 1441 1438 1436 1434 1432 1429 1427 1425 1423 1421 1419 1419 1420 1421 1422 1423 1424 1425 1426 1427 1427 1428 1430 1431 1432 1434 1435 1436 1438 1439 1441 1444 1445 1447 1450 1453 1456 1459 1461 1464 1467 1469 1472 1475 1477 1480 1482 1482 1485 1488 1490 1493 1497 1500 1503 1504 1505 1507 1509 1511 1513 1516 1519 1521 1524 1526 1527 1529 1531 1532 1533 1535 1535 1536 1534 1532 1533 1534 1532 1532 1533 1533 1533 1533
1438 1436 1433 1431 1428 1426 1424 1421 1419 1417 1415 1413 1413 1413 1414 1415 1416 1417 1419 1420 1421 1422 1423 1424 1426 1427 1429 1430 1431 1433 1433 1435 1438 1441 1442 1445 1448 1451 1454 1456 1459 1463 1465 1468 1470 1472 1475 1477 1478 1481 1484 1487 1490 1494 1496 1499 1500 1501 1504 1506 1507 1509 1512 1515 1517 1519 1522 1524 1527 1529 1530 1531 1533 1533 1533 1533 1531 1530 1530 1530 1531 1531 1531 1531 1530
1433 1430 1428 1425 1422 1420 1418 1415 1413 1411 1409 1407 1407 1407 1407 1408 1410 1411 1412 1412 1413 1415 1417 1418 1420 1422 1423 1425 1426 1427 1428 1430 1433 1436 1438 1440 1443 1446 1449 1451 1454 1458 1461 1464 1467 1469 1471 1473 1474 1477 1481 1483 1486 1490 1493 1495 1496 1497 1499 1501 1503 1506 1509 1512 1514 1515 1518 1522 1525 1527 1527 1528 1530 1532 1531 1530 1529 1528 1528 1529 1530 1529 1529 1528 1528
1427 1424 1421 1418 1415 1413 1411 1409 1406 1404 1402 1401 1401 1401 1401 1402 1403 1404 1405 1405 1406 1407 1409 1411 1414 1416 1418 1419 1421 1421 1423 1425 1428 1430 1433 1436 1438 1442 1445 1446 1448 1452 1456 1459 1463 1466 1468 1470 1471 1474 1477 1480 1483 1487 1490 1491 1492 1493 1495 1496 1499 1502 1506 1508 1510 1512 1516 1521 1523 1525 1526 1526 1527 1529 1529 1527 1527 1526 1525 1526 1528 1527 1526 1526 1526
1421 1418 1414 1411 1408 1406 1404 1402 1399 1396 1394 1394 1394 1394 1394 1395 1397 1398 1398 1398 1399 1399 1401 1404 1406 1409 1411 1413 1415 1416 1418 1420 1422 1425 1428 1431 1433 1436 1440 1442 1443 1447 1451 1454 1457 1461 1464 1466 1469 1471 1474 1477 1480 1483 1486 1488 1489 1490 1492 1494 1497 1500 1503 1505 1507 1511 1515 1518 1520 1522 1525 1524 1524 1527 1528 1525 1525 1524 1523 1524 1525 1525 1524 1524 1524
1416 1412 1408 1405 1402 1399 1397 1396 1393 1390 1388 1387 1387 1387 1387 1388 1390 1391 1391 1391 1392 1392 1394 1396 1399 1401 1404 1407 1409 1411 1413 1415 1417 1420 1423 1427 1429 1431 1435 1437 1438 1442 1446 1448 1451 1456 1458 1462 1465 1468 1471 1475 1478 1480 1482 1484 1485 1487 1491 1493 1495 1499 1501 1503 1506 1509 1512 1514 1516 1519 1523 1522 1521 1524 1526 1524 1523 1523 1521 1521 1523 1522 1522 1522 1522
1411 1407 1403 1400 1396 1393 1391 1389 1387 1383 1381 1380 1380 1379 1379 1381 1382 1383 1383 1384 1385 1386 1387 1389 1391 1394 1397 1399 1403 1405 1407 1410 1412 1415 1418 1422 1425 1426 1429 1433 1434 1437 1441 1443 1447 1451 1454 1458 1463 1465 1468 1472 1474 1476 1478 1480 1482 1485 1488 1490 1492 1496 1498 1500 1503 1506 1508 1511 1513 1516 1520 1520 1519 1521 1524 1522 1522 1522 1520 1519 1520 1521 1520 1520 1520
1407 1403 1399 1395 1391 1388 1385 1382 1380 1377 1373 1372 1372 1371 1371 1373 1375 1376 1377 1378 1379 1379 1381 1382 1385 1387 1389 1392 1396 1400 1402 1405 1407 1410 1413 1417 1421 1422 1424 1428 1431 1433 1436 1439 1443 1447 1450 1454 1459 1462 1465 1468 1470 1472 1475 1477 1479 1481 1483 1486 1489 1491 1494 1498 1501 1504 1506 1508 1510 1513 1517 1517 1516 1519 1521 1520 1520 1520 1519 1518 1518 1518 1519 1519 1519
1402 1398 1394 1390 1386 1382 1379 1376 1373 1370 1366 1364 1364 1363 1363 1365 1367 1369 1371 1372 1372 1373 1375 1377 1379 1381 1383 1387 1390 1393 1397 1401 1403 1404 1408 1412 1415 1416 1420 1424 1427 1430 1433 1436 1440 1443 1446 1450 1454 1457 1461 1463 1465 1468 1471 1474 1476 1478 1480 1483 1486 1488 1492 1495 1498 1502 1504 1505 1507 1511 1514 1514 1514 1517 1518 1519 1519 1519 1518 1517 1517 1517 1517 1517 1517